FW1504 Weather Reports


time (UTC)temp
C
wind
direction
speed
KPH
gust
KPH
rain 1hr
cm
rain 24hr
cm
rain mn
cm
humidity
%
barometer
mb
20260507023038 13 125 0.0 1.6 0.00 0.00 0.00 67 1018.5
20260507021539 14 125 0.0 3.2 0.00 0.00 0.00 66 1018.3
20260507020038 14 125 0.0 3.2 0.00 0.00 0.00 64 1018.0
20260507014547 15 126 0.0 4.8 0.00 0.00 0.00 63 1017.6
20260507013037 15 132 0.0 4.8 0.00 0.00 0.00 62 1017.4
20260507011538 15 128 1.6 6.4 0.00 0.00 0.00 61 1017.4
20260507010040 16 119 0.0 6.4 0.00 0.00 0.00 60 1017.4
20260507004534 16 123 1.6 4.8 0.00 0.00 0.00 59 1017.3
20260507003035 16 117 0.0 3.2 0.00 0.00 0.00 59 1017.2
20260507001532 16 360 0.0 4.8 0.00 0.00 0.00 58 1017.0
20260507000132 16 360 3.2 8.0 0.00 0.00 0.00 57 1017.0
20260506234531 16 129 1.6 6.4 0.00 0.00 0.00 57 1016.7
20260506233033 16 128 1.6 8.0 0.00 0.00 0.00 57 1016.7
20260506231529 17 107 1.6 9.7 0.00 0.00 0.00 56 1016.6
20260506230028 16 28 1.6 11.3 0.00 0.00 0.00 58 1016.5
20260506224527 16 86 1.6 8.0 0.00 0.00 0.00 58 1016.5
20260506223026 16 35 3.2 14.5 0.00 0.00 0.00 58 1016.5
20260506221526 16 69 3.2 12.9 0.00 0.00 0.00 57 1016.3
20260506220026 17 101 3.2 14.5 0.00 0.00 0.00 56 1016.3
20260506214525 17 336 3.2 12.9 0.00 0.00 0.00 55 1016.3
20260506213024 17 216 3.2 8.0 0.00 0.00 0.00 57 1016.3
20260506211522 17 51 3.2 14.5 0.00 0.00 0.00 57 1016.3
20260506210023 17 43 4.8 14.5 0.00 0.00 0.00 55 1016.2
20260506204524 17 26 4.8 17.7 0.00 0.00 0.00 55 1016.4
20260506203021 17 15 4.8 16.1 0.00 0.00 0.00 55 1016.4
20260506201521 17 15 3.2 11.3 0.00 0.00 0.00 57 1016.5
20260506200019 17 34 1.6 16.1 0.00 0.00 0.00 56 1016.5
20260506194519 17 132 3.2 14.5 0.00 0.00 0.00 55 1016.5
20260506193016 16 42 3.2 11.3 0.00 0.00 0.00 57 1016.5
20260506191514 16 80 3.2 12.9 0.00 0.00 0.00 57 1016.7
20260506190013 16 5 3.2 11.3 0.00 0.00 0.00 57 1016.7
20260506184510 16 123 3.2 14.5 0.00 0.00 0.00 57 1016.8
20260506183008 15 104 3.2 12.9 0.00 0.00 0.00 60 1017.3
20260506181505 15 82 1.6 11.3 0.00 0.00 0.00 60 1017.7
20260506180005 15 146 4.8 16.1 0.00 0.00 0.00 62 1017.9
20260506174504 15 136 3.2 11.3 0.00 0.00 0.00 63 1018.0
20260506173002 15 344 4.8 19.3 0.00 0.00 0.00 62 1018.3
20260506171501 13 133 3.2 12.9 0.00 0.00 0.00 63 1018.1
20260506170000 15 59 4.8 12.9 0.00 0.00 0.00 61 1018.3
20260506164606 13 35 4.8 11.3 0.00 0.00 0.00 64 1018.3
20260506163114 12 103 3.2 14.5 0.00 0.00 0.00 66 1018.5
20260506161601 12 13 4.8 11.3 0.00 0.00 0.00 67 1018.7
20260506160052 12 127 3.2 16.1 0.00 0.00 0.00 68 1018.6
20260506154607 11 178 3.2 16.1 0.00 0.00 0.00 69 1018.4
20260506153054 11 34 4.8 12.9 0.00 0.00 0.00 69 1018.2
20260506151547 11 360 3.2 14.5 0.00 0.00 0.00 70 1017.9
20260506150041 11 360 4.8 12.9 0.00 0.00 0.00 73 1017.8
20260506144537 10 18 3.2 16.1 0.00 0.00 0.00 76 1017.0
20260506143046 10 28 1.6 12.9 0.00 0.00 0.00 78 1016.7
20260506141536 10 26 1.6 16.1 0.00 0.00 0.00 79 1016.8
20260506140031 9 107 3.2 14.5 0.00 0.00 0.00 79 1017.0
20260506134530 9 341 3.2 14.5 0.00 0.00 0.00 80 1017.0
20260506133027 8 69 0.0 12.9 0.00 0.00 0.00 80 1017.2
20260506131526 8 32 0.0 16.1 0.00 0.00 0.00 80 1017.1
20260506130026 8 29 3.2 12.9 0.00 0.00 0.00 80 1016.6
20260506124518 8 40 1.6 9.7 0.00 0.00 0.00 79 1016.4
20260506123016 8 65 3.2 12.9 0.00 0.00 0.00 79 1015.8
20260506121513 8 286 1.6 8.0 0.00 0.00 0.00 79 1015.7
20260506120013 8 39 0.0 9.7 0.00 0.00 0.00 78 1015.8
20260506114511 8 30 1.6 9.7 0.00 0.00 0.00 78 1015.4
20260506113008 8 11 0.0 9.7 0.00 0.00 0.00 77 1015.0
20260506111508 8 31 3.2 14.5 0.00 0.00 0.00 77 1015.2
20260506110006 8 28 1.6 12.9 0.00 0.00 0.00 77 1015.1
20260506104503 8 25 3.2 11.3 0.00 0.00 0.00 76 1015.4
20260506103003 8 60 1.6 9.7 0.00 0.00 0.00 76 1015.1
20260506101502 8 28 3.2 12.9 0.00 0.00 0.00 75 1015.1
20260506100100 8 35 0.0 8.0 0.00 0.00 0.00 75 1015.0
20260506094622 9 5 3.2 16.1 0.00 0.00 0.00 75 1014.9
20260506093057 9 22 3.2 12.9 0.00 0.00 0.00 75 1014.8
20260506091554 9 31 3.2 16.1 0.00 0.00 0.00 75 1014.5
20260506090051 9 31 1.6 9.7 0.00 0.00 0.00 75 1014.1
20260506084550 9 329 3.2 14.5 0.00 0.00 0.00 75 1014.2
20260506083049 9 355 1.6 12.9 0.00 0.00 0.00 75 1013.9
20260506081546 9 21 3.2 12.9 0.00 0.00 0.00 75 1013.1
20260506073045 9 36 1.6 12.9 0.00 0.00 0.00 74 1012.0
20260506071539 9 40 3.2 11.3 0.00 0.00 0.00 74 1012.4
20260506061536 9 87 0.0 6.4 0.00 0.00 0.00 76 1012.7
20260506044533 9 41 0.0 6.4 0.00 0.00 0.00 82 1012.6
20260506043022 9 34 1.6 9.7 0.00 0.00 0.00 81 1012.5
20260506041520 9 74 1.6 14.5 0.00 0.00 0.00 81 1012.5
20260506040042 9 52 3.2 14.5 0.00 0.00 0.00 83 1012.4
20260506034516 9 94 1.6 8.0 0.00 0.00 0.00 83 1012.3
20260506033015 9 67 0.0 11.3 0.00 0.00 0.00 83 1012.2
20260506031529 9 100 1.6 12.9 0.00 0.00 0.00 83 1011.9
20260506030013 9 59 1.6 9.7 0.00 0.00 0.00 82 1011.8
20260506024517 9 96 3.2 14.5 0.00 0.00 0.00 82 1011.3